SB KEPS @ AMSAT $ORB09099.O Orbital Elements 09099.OSCAR
HR AMSAT ORBITAL ELEMENTS FOR OSCAR SATELLITES FROM WA5QGD FORT WORTH,TX April 9, 2009 Send Subscribe/unsubscribe to KEPS at http://www.amsat.org/mailman/listinfo/keps BID: ORB09099.O TO ALL RADIO AMATEURS BT
Satellite: AO-07 Catalog number: 07530 Epoch time: 09099.61489822 Element set: 447 Inclination: 101.4330 deg RA of node: 126.7955 deg Eccentricity: 0.0012111 Arg of perigee: 043.8428 deg Mean anomaly: 316.3602 deg Mean motion: 12.53575481 rev/day Decay rate: -2.7e-07 rev/day^2 Epoch rev: 57412 Checksum: 288
Satellite: AO-10 Catalog number: 14129 Epoch time: 09097.31715068 Element set: 0642 Inclination: 025.9513 deg RA of node: 163.0747 deg Eccentricity: 0.5987444 Arg of perigee: 212.2506 deg Mean anomaly: 090.3894 deg Mean motion: 02.05870720 rev/day Decay rate: -1.43e-06 rev/day^2 Epoch rev: 19416 Checksum: 302
Satellite: UO-11 Catalog number: 14781 Epoch time: 09098.69935427 Element set: 931 Inclination: 098.1151 deg RA of node: 142.5190 deg Eccentricity: 0.0008749 Arg of perigee: 193.6658 deg Mean anomaly: 166.4323 deg Mean motion: 14.79704487 rev/day Decay rate: 2.67e-06 rev/day^2 Epoch rev: 34755 Checksum: 345
Satellite: RS-15 Catalog number: 23439 Epoch time: 09098.88904555 Element set: 0217 Inclination: 064.8137 deg RA of node: 016.8754 deg Eccentricity: 0.0146929 Arg of perigee: 064.9485 deg Mean anomaly: 296.6607 deg Mean motion: 11.27553244 rev/day Decay rate: -3.9e-07 rev/day^2 Epoch rev: 58830 Checksum: 352
Satellite: FO-29 Catalog number: 24278 Epoch time: 09098.70976040 Element set: 0044 Inclination: 098.5634 deg RA of node: 342.0528 deg Eccentricity: 0.0350720 Arg of perigee: 170.2742 deg Mean anomaly: 190.5425 deg Mean motion: 13.52941896 rev/day Decay rate: -6.2e-07 rev/day^2 Epoch rev: 62435 Checksum: 314
Satellite: SO-33 Catalog number: 25509 Epoch time: 09098.29947517 Element set: 0428 Inclination: 031.4290 deg RA of node: 087.6666 deg Eccentricity: 0.0354095 Arg of perigee: 087.4867 deg Mean anomaly: 276.6206 deg Mean motion: 14.28249091 rev/day Decay rate: 1.47e-06 rev/day^2 Epoch rev: 54583 Checksum: 351
Satellite: AO-40 Catalog number: 26609 Epoch time: 09096.92754300 Element set: 212 Inclination: 009.1261 deg RA of node: 024.6782 deg Eccentricity: 0.7961427 Arg of perigee: 192.2223 deg Mean anomaly: 117.8823 deg Mean motion: 01.25583575 rev/day Decay rate: -4.38e-06 rev/day^2 Epoch rev: 3873 Checksum: 309
Satellite: RS-22 Catalog number: 27939 Epoch time: 09098.72553134 Element set: 0761 Inclination: 097.9562 deg RA of node: 336.0869 deg Eccentricity: 0.0013615 Arg of perigee: 356.6415 deg Mean anomaly: 003.4694 deg Mean motion: 14.63306275 rev/day Decay rate: 9.9e-07 rev/day^2 Epoch rev: 29541 Checksum: 336
Satellite: VO-52 Catalog number: 28650 Epoch time: 09098.68911421 Element set: 198 Inclination: 097.7491 deg RA of node: 162.5484 deg Eccentricity: 0.0026046 Arg of perigee: 255.6570 deg Mean anomaly: 104.1745 deg Mean motion: 14.81571095 rev/day Decay rate: 3.93e-06 rev/day^2 Epoch rev: 21235 Checksum: 320
Satellite: PO-63 Catalog number: 29712 Epoch time: 09099.75656958 Element set: 386 Inclination: 097.8355 deg RA of node: 157.7823 deg Eccentricity: 0.0015017 Arg of perigee: 134.1491 deg Mean anomaly: 226.0957 deg Mean motion: 14.80498287 rev/day Decay rate: 4.69e-06 rev/day^2 Epoch rev: 12134 Checksum: 354
/EX SB KEPS @ AMSAT $ORB09099.D Orbital Elements 09099.MICROS
HR AMSAT ORBITAL ELEMENTS FOR THE MICROSATS FROM WA5QGD FORT WORTH,TX April 9, 2009 Send Subscribe/unsubscribe to KEPS at http://www.amsat.org/mailman/listinfo/keps BID: ORB09099.D TO ALL RADIO AMATEURS BT
Satellite: AO-16 Catalog number: 20439 Epoch time: 09098.67213150 Element set: 0577 Inclination: 098.2721 deg RA of node: 070.2613 deg Eccentricity: 0.0011452 Arg of perigee: 022.4713 deg Mean anomaly: 337.6961 deg Mean motion: 14.31820460 rev/day Decay rate: 6.0e-08 rev/day^2 Epoch rev: 00320 Checksum: 262
Satellite: LO-19 Catalog number: 20442 Epoch time: 09098.67063769 Element set: 496 Inclination: 098.2367 deg RA of node: 077.7895 deg Eccentricity: 0.0012261 Arg of perigee: 019.6364 deg Mean anomaly: 340.5297 deg Mean motion: 14.32056647 rev/day Decay rate: 1.4e-07 rev/day^2 Epoch rev: 336 Checksum: 326
Satellite: AO-27 Catalog number: 22825 Epoch time: 09098.76957132 Element set: 0217 Inclination: 098.4294 deg RA of node: 054.4017 deg Eccentricity: 0.0009252 Arg of perigee: 106.5651 deg Mean anomaly: 253.6568 deg Mean motion: 14.29262615 rev/day Decay rate: 1.7e-07 rev/day^2 Epoch rev: 80999 Checksum: 330
Satellite: IO-26 Catalog number: 22826 Epoch time: 09099.82189296 Element set: 939 Inclination: 098.4232 deg RA of node: 056.1992 deg Eccentricity: 0.0009934 Arg of perigee: 100.8265 deg Mean anomaly: 259.4035 deg Mean motion: 14.29513832 rev/day Decay rate: -1.0e-07 rev/day^2 Epoch rev: 81024 Checksum: 322
Satellite: GO-32 Catalog number: 25397 Epoch time: 09098.53957391 Element set: 0864 Inclination: 098.3310 deg RA of node: 124.5937 deg Eccentricity: 0.0002122 Arg of perigee: 086.2116 deg Mean anomaly: 273.9328 deg Mean motion: 14.23156970 rev/day Decay rate: -1.8e-07 rev/day^2 Epoch rev: 55822 Checksum: 318
Satellite: NO-44 Catalog number: 26931 Epoch time: 09098.88145629 Element set: 0143 Inclination: 067.0500 deg RA of node: 242.8915 deg Eccentricity: 0.0005309 Arg of perigee: 266.6206 deg Mean anomaly: 093.4283 deg Mean motion: 14.29552986 rev/day Decay rate: 5.0e-08 rev/day^2 Epoch rev: 39267 Checksum: 324
Satellite: SO-50 Catalog number: 27607 Epoch time: 09098.52431942 Element set: 0857 Inclination: 064.5566 deg RA of node: 236.6638 deg Eccentricity: 0.0074624 Arg of perigee: 221.0823 deg Mean anomaly: 138.4612 deg Mean motion: 14.71425603 rev/day Decay rate: -5.6e-07 rev/day^2 Epoch rev: 33842 Checksum: 311
Satellite: CO-55 Catalog number: 27844 Epoch time: 09098.54750732 Element set: 0553 Inclination: 098.7147 deg RA of node: 108.6938 deg Eccentricity: 0.0009941 Arg of perigee: 350.1103 deg Mean anomaly: 009.9885 deg Mean motion: 14.20630807 rev/day Decay rate: 6.2e-07 rev/day^2 Epoch rev: 29937 Checksum: 333
Satellite: CO-57 Catalog number: 27848 Epoch time: 09098.58579776 Element set: 0499 Inclination: 098.7171 deg RA of node: 107.7939 deg Eccentricity: 0.0009952 Arg of perigee: 353.7676 deg Mean anomaly: 006.3375 deg Mean motion: 14.20433383 rev/day Decay rate: 6.0e-08 rev/day^2 Epoch rev: 29934 Checksum: 374
Satellite: AO-51 Catalog number: 28375 Epoch time: 09098.57963634 Element set: 0360 Inclination: 098.0555 deg RA of node: 112.2356 deg Eccentricity: 0.0084550 Arg of perigee: 337.2204 deg Mean anomaly: 022.5245 deg Mean motion: 14.40637772 rev/day Decay rate: 3.0e-08 rev/day^2 Epoch rev: 25093 Checksum: 299
Satellite: CO-56 Catalog number: 28941 Epoch time: 09099.72738336 Element set: 976 Inclination: 098.1336 deg RA of node: 261.7480 deg Eccentricity: 0.0102956 Arg of perigee: 030.1651 deg Mean anomaly: 330.5504 deg Mean motion: 15.77490548 rev/day Decay rate: 4.2493e-04 rev/day^2 Epoch rev: 17643 Checksum: 341
Satellite: CP3 Catalog number: 31128 Epoch time: 09099.65553390 Element set: 600 Inclination: 097.9944 deg RA of node: 155.8990 deg Eccentricity: 0.0103548 Arg of perigee: 137.2134 deg Mean anomaly: 223.7175 deg Mean motion: 14.52031167 rev/day Decay rate: -4.6e-07 rev/day^2 Epoch rev: 10495 Checksum: 305
Satellite: CP4 Catalog number: 31132 Epoch time: 09098.63033453 Element set: 0583 Inclination: 098.0024 deg RA of node: 158.5785 deg Eccentricity: 0.0086845 Arg of perigee: 129.6925 deg Mean anomaly: 231.1962 deg Mean motion: 14.55195749 rev/day Decay rate: 8.5e-07 rev/day^2 Epoch rev: 10491 Checksum: 322
Satellite: CO-65 Catalog number: 32785 Epoch time: 09098.42242072 Element set: 0341 Inclination: 097.9532 deg RA of node: 162.9470 deg Eccentricity: 0.0013793 Arg of perigee: 258.1843 deg Mean anomaly: 101.7806 deg Mean motion: 14.81466188 rev/day Decay rate: 2.57e-06 rev/day^2 Epoch rev: 05111 Checksum: 313
Satellite: SOHLA-1 Catalog number: 33496 Epoch time: 09099.81563307 Element set: 233 Inclination: 098.0314 deg RA of node: 210.2158 deg Eccentricity: 0.0007527 Arg of perigee: 133.9412 deg Mean anomaly: 226.2411 deg Mean motion: 14.69428768 rev/day Decay rate: 8.3e-07 rev/day^2 Epoch rev: 1123 Checksum: 284
/EX SB KEPS @ AMSAT $ORB09099.W Orbital Elements 09099.WEATHER
HR AMSAT ORBITAL ELEMENTS FOR WEATHER SATELLITES FROM WA5QGD FORT WORTH,TX April 9, 2009 Send Subscribe/unsubscribe to KEPS at http://www.amsat.org/mailman/listinfo/keps BID: ORB09099.W TO ALL RADIO AMATEURS BT
Satellite: NOAA-10 Catalog number: 16969 Epoch time: 09098.69014003 Element set: 0566 Inclination: 098.6975 deg RA of node: 125.6974 deg Eccentricity: 0.0012905 Arg of perigee: 043.1852 deg Mean anomaly: 317.0345 deg Mean motion: 14.27383197 rev/day Decay rate: -5.5e-07 rev/day^2 Epoch rev: 17359 Checksum: 331
Satellite: NOAA-11 Catalog number: 19531 Epoch time: 09098.76403372 Element set: 0579 Inclination: 098.7816 deg RA of node: 189.7918 deg Eccentricity: 0.0011068 Arg of perigee: 310.0814 deg Mean anomaly: 049.9387 deg Mean motion: 14.14891308 rev/day Decay rate: -2.06e-06 rev/day^2 Epoch rev: 05970 Checksum: 334
Satellite: NOAA-12 Catalog number: 21263 Epoch time: 09098.97347047 Element set: 0091 Inclination: 098.7741 deg RA of node: 107.0000 deg Eccentricity: 0.0012561 Arg of perigee: 351.7566 deg Mean anomaly: 008.3405 deg Mean motion: 14.25573135 rev/day Decay rate: 3.2e-07 rev/day^2 Epoch rev: 93053 Checksum: 278
Satellite: MET-3/5 Catalog number: 21655 Epoch time: 09098.94137621 Element set: 0606 Inclination: 082.5477 deg RA of node: 255.4112 deg Eccentricity: 0.0013944 Arg of perigee: 359.2224 deg Mean anomaly: 000.8874 deg Mean motion: 13.17018684 rev/day Decay rate: 5.1e-07 rev/day^2 Epoch rev: 84851 Checksum: 308
